Time,TemperatureF,DewpointF,PressureIn,WindDirection,WindDirectionDegrees,WindSpeedMPH,WindSpeedGustMPH,Humidity,HourlyPrecipIn,Conditions,Clouds,dailyrainin,SoftwareType,DateUTC
2013-01-25 00:57:00,22.3,9.0,29.45,SSE,158,4.0,4.0,56,0.00,,,0.00,WUHU21623XXSP,2013-01-25 06:57:00,
2013-01-25 01:57:00,22.6,9.3,29.43,South,180,6.7,6.7,56,0.00,,,0.00,WUHU21623XXSP,2013-01-25 07:57:00,
2013-01-25 02:57:00,22.5,10.0,29.41,SE,135,0.0,0.0,58,0.00,,,0.00,WUHU21623XXSP,2013-01-25 08:57:00,
2013-01-25 03:57:00,22.3,10.2,29.35,SSE,158,6.5,6.5,59,0.00,,,0.00,WUHU21623XXSP,2013-01-25 09:57:00,
2013-01-25 04:57:00,22.5,10.7,29.37,SSW,203,0.0,0.0,60,0.00,,,0.00,WUHU21623XXSP,2013-01-25 10:57:00,
2013-01-25 06:03:00,22.5,11.1,29.35,South,180,0.0,0.0,61,0.00,,,0.00,WUHU21623XXSP,2013-01-25 12:03:00,
2013-01-25 06:08:00,22.5,11.0,29.35,South,180,0.0,0.0,61,0.00,,,0.00,WUHU21623XXSP,2013-01-25 12:08:00,
2013-01-25 06:13:00,22.5,11.0,29.34,South,180,0.0,0.0,61,0.00,,,0.00,WUHU21623XXSP,2013-01-25 12:13:00,
2013-01-25 06:18:00,22.5,11.0,29.33,South,180,0.0,0.0,61,0.00,,,0.00,WUHU21623XXSP,2013-01-25 12:18:00,
2013-01-25 06:23:00,22.5,11.0,29.33,South,180,0.0,0.0,62,0.00,,,0.00,WUHU21623XXSP,2013-01-25 12:23:00,
2013-01-25 06:28:00,22.5,11.3,29.34,South,180,0.0,0.0,62,0.00,,,0.00,WUHU21623XXSP,2013-01-25 12:28:00,
2013-01-25 06:33:00,22.5,11.3,29.34,South,180,0.4,0.4,62,0.00,,,0.00,WUHU21623XXSP,2013-01-25 12:33:00,
2013-01-25 06:38:00,22.5,11.3,29.35,South,180,0.0,0.4,62,0.00,,,0.00,WUHU21623XXSP,2013-01-25 12:38:00,
2013-01-25 06:43:00,22.6,11.3,29.35,South,180,0.0,0.0,62,0.00,,,0.00,WUHU21623XXSP,2013-01-25 12:43:00,
2013-01-25 06:48:00,22.6,11.5,29.35,South,180,1.1,1.1,62,0.00,,,0.00,WUHU21623XXSP,2013-01-25 12:48:00,
2013-01-25 06:53:00,22.6,11.5,29.34,South,180,0.0,1.1,62,0.00,,,0.00,WUHU21623XXSP,2013-01-25 12:53:00,
2013-01-25 06:58:00,22.6,11.5,29.34,SSW,202,2.7,2.7,62,0.00,,,0.00,WUHU21623XXSP,2013-01-25 12:58:00,
2013-01-25 07:03:00,22.6,11.5,29.35,SSW,202,2.9,2.9,62,0.00,,,0.00,WUHU21623XXSP,2013-01-25 13:03:00,
2013-01-25 07:08:00,22.6,11.5,29.35,SSW,202,1.1,3.4,62,0.00,,,0.00,WUHU21623XXSP,2013-01-25 13:08:00,
2013-01-25 07:13:00,22.6,11.9,29.35,SSW,202,0.0,3.4,63,0.00,,,0.00,WUHU21623XXSP,2013-01-25 13:13:00,
2013-01-25 07:18:00,22.6,11.9,29.35,SSW,202,2.5,2.7,63,0.00,,,0.00,WUHU21623XXSP,2013-01-25 13:18:00,
2013-01-25 07:23:00,22.6,11.9,29.34,SSW,202,0.0,2.7,63,0.00,,,0.00,WUHU21623XXSP,2013-01-25 13:23:00,
2013-01-25 07:28:00,22.6,11.9,29.34,SSW,202,6.5,6.5,63,0.00,,,0.00,WUHU21623XXSP,2013-01-25 13:28:00,
2013-01-25 07:33:00,22.6,11.9,29.34,SW,225,1.6,6.5,63,0.00,,,0.00,WUHU21623XXSP,2013-01-25 13:33:00,
2013-01-25 07:38:00,22.8,12.0,29.33,SW,225,5.6,5.6,63,0.00,,,0.00,WUHU21623XXSP,2013-01-25 13:38:00,
2013-01-25 07:43:00,22.8,12.0,29.34,SW,225,0.0,5.6,63,0.00,,,0.00,WUHU21623XXSP,2013-01-25 13:43:00,
2013-01-25 07:48:00,22.8,12.0,29.34,SW,225,0.0,5.6,63,0.00,,,0.00,WUHU21623XXSP,2013-01-25 13:48:00,
2013-01-25 07:53:00,22.8,12.4,29.33,SW,225,1.8,1.8,64,0.00,,,0.00,WUHU21623XXSP,2013-01-25 13:53:00,
2013-01-25 07:58:00,22.8,12.4,29.33,WSW,247,2.5,3.1,64,0.00,,,0.00,WUHU21623XXSP,2013-01-25 13:58:00,
2013-01-25 08:03:00,23.0,12.6,29.34,SSW,202,0.9,3.1,64,0.00,,,0.00,WUHU21623XXSP,2013-01-25 14:03:00,
2013-01-25 08:08:00,23.2,12.7,29.34,WSW,247,0.0,0.9,64,0.00,,,0.00,WUHU21623XXSP,2013-01-25 14:08:00,
2013-01-25 08:13:00,23.4,12.9,29.34,WSW,247,0.0,1.3,64,0.00,,,0.00,WUHU21623XXSP,2013-01-25 14:13:00,
2013-01-25 08:18:00,23.4,12.9,29.33,SW,225,0.9,1.3,64,0.00,,,0.00,WUHU21623XXSP,2013-01-25 14:18:00,
2013-01-25 08:23:00,23.5,13.4,29.33,WSW,247,1.6,2.9,65,0.00,,,0.00,WUHU21623XXSP,2013-01-25 14:23:00,
2013-01-25 08:28:00,23.7,13.6,29.34,SW,225,4.0,4.0,65,0.00,,,0.00,WUHU21623XXSP,2013-01-25 14:28:00,
2013-01-25 08:33:00,23.9,13.8,29.34,WSW,247,2.7,4.5,65,0.00,,,0.00,WUHU21623XXSP,2013-01-25 14:33:00,
2013-01-25 08:38:00,24.1,13.9,29.33,West,270,3.1,5.6,65,0.00,,,0.00,WUHU21623XXSP,2013-01-25 14:38:00,
2013-01-25 08:43:00,24.1,13.9,29.34,WSW,247,6.5,6.5,65,0.00,,,0.00,WUHU21623XXSP,2013-01-25 14:43:00,
2013-01-25 08:48:00,24.4,14.3,29.33,WSW,247,4.5,6.5,65,0.00,,,0.00,WUHU21623XXSP,2013-01-25 14:48:00,
2013-01-25 08:53:00,24.6,14.4,29.33,WSW,247,6.9,6.9,65,0.00,,,0.00,WUHU21623XXSP,2013-01-25 14:53:00,
2013-01-25 08:58:00,24.6,14.4,29.33,NW,315,5.1,6.9,65,0.00,,,0.00,WUHU21623XXSP,2013-01-25 14:58:00,
2013-01-25 09:03:00,24.6,14.1,29.33,West,270,3.8,5.1,64,0.00,,,0.00,WUHU21623XXSP,2013-01-25 15:03:00,
2013-01-25 09:08:00,25.0,14.4,29.33,West,270,0.0,6.0,64,0.00,,,0.00,WUHU21623XXSP,2013-01-25 15:08:00,
2013-01-25 09:13:00,25.0,14.4,29.33,WNW,292,0.4,10.3,64,0.00,,,0.00,WUHU21623XXSP,2013-01-25 15:13:00,
2013-01-25 09:18:00,25.0,14.4,29.33,West,270,0.0,10.3,64,0.00,,,0.00,WUHU21623XXSP,2013-01-25 15:18:00,
2013-01-25 09:23:00,25.3,14.8,29.33,West,270,5.1,5.8,64,0.00,,,0.00,WUHU21623XXSP,2013-01-25 15:23:00,
2013-01-25 09:28:00,25.5,15.0,29.33,West,270,0.9,5.8,64,0.00,,,0.00,WUHU21623XXSP,2013-01-25 15:28:00,
2013-01-25 09:33:00,25.9,15.1,29.33,WSW,247,7.2,7.2,64,0.00,,,0.00,WUHU21623XXSP,2013-01-25 15:33:00,
2013-01-25 09:38:00,26.2,15.6,29.33,WSW,247,3.4,7.2,64,0.00,,,0.00,WUHU21623XXSP,2013-01-25 15:38:00,
2013-01-25 09:43:00,26.4,15.4,29.33,NW,315,6.3,6.5,63,0.00,,,0.00,WUHU21623XXSP,2013-01-25 15:43:00,
2013-01-25 09:48:00,26.8,15.8,29.33,West,270,3.6,6.3,63,0.00,,,0.00,WUHU21623XXSP,2013-01-25 15:48:00,
2013-01-25 09:53:00,26.8,15.4,29.33,WNW,292,0.9,7.6,62,0.00,,,0.00,WUHU21623XXSP,2013-01-25 15:53:00,
2013-01-25 09:58:00,27.1,15.8,29.33,West,270,3.4,7.6,62,0.00,,,0.00,WUHU21623XXSP,2013-01-25 15:58:00,
2013-01-25 10:03:00,27.3,16.0,29.33,WSW,247,7.2,7.2,62,0.00,,,0.00,WUHU21623XXSP,2013-01-25 16:03:00,
2013-01-25 10:08:00,28.0,16.3,29.32,WSW,247,5.6,7.2,61,0.00,,,0.00,WUHU21623XXSP,2013-01-25 16:08:00,
2013-01-25 10:13:00,28.2,16.2,29.32,WSW,247,0.7,6.3,60,0.00,,,0.00,WUHU21623XXSP,2013-01-25 16:13:00,
2013-01-25 10:18:00,28.6,16.5,29.32,West,270,5.6,5.6,60,0.00,,,0.00,WUHU21623XXSP,2013-01-25 16:18:00,
2013-01-25 10:23:00,28.9,16.4,29.32,WSW,247,4.0,5.6,59,0.00,,,0.00,WUHU21623XXSP,2013-01-25 16:23:00,
2013-01-25 10:28:00,28.9,16.0,29.32,WNW,292,6.3,6.3,58,0.00,,,0.00,WUHU21623XXSP,2013-01-25 16:28:00,
2013-01-25 10:33:00,29.1,16.2,29.32,WSW,247,8.7,8.7,58,0.00,,,0.00,WUHU21623XXSP,2013-01-25 16:33:00,
2013-01-25 10:38:00,29.1,16.2,29.32,WSW,247,3.1,8.7,58,0.00,,,0.00,WUHU21623XXSP,2013-01-25 16:38:00,
2013-01-25 10:42:00,29.5,16.5,29.31,West,270,5.1,8.7,58,0.00,,,0.00,WUHU21623XXSP,2013-01-25 16:42:00,
2013-01-25 10:48:00,30.0,16.6,29.32,NW,315,5.6,8.7,57,0.00,,,0.00,WUHU21623XXSP,2013-01-25 16:48:00,
2013-01-25 10:53:00,30.4,16.6,29.32,WSW,247,6.0,8.5,56,0.00,,,0.00,WUHU21623XXSP,2013-01-25 16:53:00,
2013-01-25 10:58:00,30.4,16.5,29.31,WSW,247,6.0,8.5,56,0.00,,,0.00,WUHU21623XXSP,2013-01-25 16:58:00,
2013-01-25 11:03:00,30.4,16.1,29.31,West,270,3.6,6.0,55,0.00,,,0.00,WUHU21623XXSP,2013-01-25 17:03:00,
2013-01-25 11:08:00,30.4,16.1,29.31,West,270,8.9,8.9,55,0.00,,,0.00,WUHU21623XXSP,2013-01-25 17:08:00,
2013-01-25 11:13:00,30.4,16.1,29.30,WSW,247,6.9,8.9,55,0.00,,,0.00,WUHU21623XXSP,2013-01-25 17:13:00,
2013-01-25 11:18:00,30.6,16.2,29.30,WNW,292,6.3,8.9,55,0.00,,,0.00,WUHU21623XXSP,2013-01-25 17:18:00,
2013-01-25 11:23:00,30.7,16.4,29.30,West,270,7.6,8.5,55,0.00,,,0.00,WUHU21623XXSP,2013-01-25 17:23:00,
2013-01-25 11:28:00,31.1,16.7,29.30,West,270,6.5,8.5,55,0.00,,,0.00,WUHU21623XXSP,2013-01-25 17:28:00,
2013-01-25 11:33:00,31.3,16.5,29.30,WSW,247,8.9,8.9,54,0.00,,,0.00,WUHU21623XXSP,2013-01-25 17:33:00,
2013-01-25 11:38:00,31.8,17.0,29.30,WNW,292,8.1,8.9,54,0.00,,,0.00,WUHU21623XXSP,2013-01-25 17:38:00,
2013-01-25 11:43:00,32.0,17.2,29.29,WSW,247,6.3,8.1,54,0.00,,,0.00,WUHU21623XXSP,2013-01-25 17:43:00,
2013-01-25 11:48:00,32.2,16.9,29.28,West,270,3.8,6.5,53,0.00,,,0.00,WUHU21623XXSP,2013-01-25 17:48:00,
2013-01-25 11:53:00,32.5,17.2,29.28,WSW,247,6.9,6.9,53,0.00,,,0.00,WUHU21623XXSP,2013-01-25 17:53:00,
2013-01-25 11:57:00,32.7,17.4,29.28,West,270,0.9,6.9,52,0.00,,,0.00,WUHU21623XXSP,2013-01-25 17:57:00,
2013-01-25 12:02:00,32.9,17.1,29.27,West,270,2.2,3.8,52,0.00,,,0.00,WUHU21623XXSP,2013-01-25 18:02:00,
2013-01-25 12:07:00,33.4,17.6,29.27,WSW,247,3.8,7.8,52,0.00,,,0.00,WUHU21623XXSP,2013-01-25 18:07:00,
2013-01-25 12:12:00,33.6,17.8,29.26,West,270,3.4,7.8,52,0.00,,,0.00,WUHU21623XXSP,2013-01-25 18:12:00,
2013-01-25 12:17:00,34.0,17.7,29.26,West,270,6.5,6.5,51,0.00,,,0.00,WUHU21623XXSP,2013-01-25 18:17:00,
2013-01-25 12:23:00,34.0,17.2,29.26,WNW,292,4.9,6.5,50,0.00,,,0.00,WUHU21623XXSP,2013-01-25 18:23:00,
2013-01-25 12:28:00,34.0,17.2,29.26,West,270,0.9,5.8,50,0.00,,,0.00,WUHU21623XXSP,2013-01-25 18:28:00,
2013-01-25 12:33:00,34.3,17.6,29.25,WSW,247,4.0,6.9,50,0.00,,,0.00,WUHU21623XXSP,2013-01-25 18:33:00,
2013-01-25 12:37:00,34.3,17.6,29.26,SW,225,3.4,10.1,50,0.00,,,0.00,WUHU21623XXSP,2013-01-25 18:37:00,
2013-01-25 12:42:00,34.7,16.9,29.25,West,270,5.1,10.1,48,0.00,,,0.00,WUHU21623XXSP,2013-01-25 18:42:00,
2013-01-25 12:48:00,34.5,17.3,29.25,WSW,247,2.7,7.4,49,0.00,,,0.00,WUHU21623XXSP,2013-01-25 18:48:00,
2013-01-25 12:53:00,34.7,16.9,29.25,West,270,8.1,8.1,48,0.00,,,0.00,WUHU21623XXSP,2013-01-25 18:53:00,
2013-01-25 12:58:00,34.7,17.4,29.25,West,270,11.0,11.0,49,0.00,,,0.00,WUHU21623XXSP,2013-01-25 18:58:00,
2013-01-25 13:03:00,35.1,17.8,29.25,WSW,247,15.2,15.2,49,0.00,,,0.00,WUHU21623XXSP,2013-01-25 19:03:00,
2013-01-25 13:08:00,35.4,18.2,29.25,SW,225,5.6,15.2,49,0.00,,,0.00,WUHU21623XXSP,2013-01-25 19:08:00,
2013-01-25 13:13:00,35.6,17.8,29.25,WNW,292,7.4,9.2,48,0.00,,,0.00,WUHU21623XXSP,2013-01-25 19:13:00,
2013-01-25 13:18:00,35.8,18.0,29.25,West,270,6.0,7.4,48,0.00,,,0.00,WUHU21623XXSP,2013-01-25 19:18:00,
2013-01-25 13:23:00,36.1,18.1,29.25,WSW,247,7.2,7.2,48,0.00,,,0.00,WUHU21623XXSP,2013-01-25 19:23:00,
2013-01-25 13:28:00,36.3,18.5,29.25,West,270,3.1,7.2,48,0.00,,,0.00,WUHU21623XXSP,2013-01-25 19:28:00,
2013-01-25 13:33:00,36.7,18.8,29.25,WNW,292,3.6,3.8,48,0.00,,,0.00,WUHU21623XXSP,2013-01-25 19:33:00,
2013-01-25 13:38:00,37.0,19.1,29.25,West,270,5.1,10.5,48,0.00,,,0.00,WUHU21623XXSP,2013-01-25 19:38:00,
2013-01-25 13:43:00,37.2,19.3,29.24,West,270,10.1,10.5,48,0.00,,,0.00,WUHU21623XXSP,2013-01-25 19:43:00,
2013-01-25 13:48:00,37.2,18.8,29.24,WSW,247,5.4,10.1,47,0.00,,,0.00,WUHU21623XXSP,2013-01-25 19:48:00,
2013-01-25 13:53:00,37.6,19.1,29.25,West,270,6.0,6.5,47,0.00,,,0.00,WUHU21623XXSP,2013-01-25 19:53:00,
2013-01-25 13:58:00,37.4,18.9,29.25,WSW,247,14.1,14.1,47,0.00,,,0.00,WUHU21623XXSP,2013-01-25 19:58:00,
2013-01-25 14:03:00,37.6,19.6,29.25,NW,315,6.5,14.1,48,0.00,,,0.00,WUHU21623XXSP,2013-01-25 20:03:00,
2013-01-25 14:08:00,37.8,19.2,29.25,WNW,292,12.1,12.1,47,0.00,,,0.00,WUHU21623XXSP,2013-01-25 20:08:00,
2013-01-25 14:13:00,37.9,19.4,29.25,West,270,4.7,12.1,47,0.00,,,0.00,WUHU21623XXSP,2013-01-25 20:13:00,
2013-01-25 14:18:00,37.9,19.4,29.25,West,270,3.6,4.7,47,0.00,,,0.00,WUHU21623XXSP,2013-01-25 20:18:00,
2013-01-25 14:23:00,38.1,19.6,29.24,West,270,5.1,9.8,47,0.00,,,0.00,WUHU21623XXSP,2013-01-25 20:23:00,
2013-01-25 14:28:00,38.1,19.6,29.24,West,270,1.3,9.8,47,0.00,,,0.00,WUHU21623XXSP,2013-01-25 20:28:00,
2013-01-25 14:33:00,38.3,19.2,29.24,WNW,292,8.9,8.9,46,0.00,,,0.00,WUHU21623XXSP,2013-01-25 20:33:00,
2013-01-25 14:38:00,38.1,19.6,29.25,West,270,7.6,11.6,47,0.00,,,0.00,WUHU21623XXSP,2013-01-25 20:38:00,
2013-01-25 14:43:00,38.3,19.7,29.24,WNW,292,5.1,11.6,47,0.00,,,0.00,WUHU21623XXSP,2013-01-25 20:43:00,
2013-01-25 14:48:00,38.3,19.2,29.25,NW,315,6.3,7.6,46,0.00,,,0.00,WUHU21623XXSP,2013-01-25 20:48:00,
2013-01-25 14:53:00,38.3,19.7,29.25,NW,315,10.5,11.9,47,0.00,,,0.00,WUHU21623XXSP,2013-01-25 20:53:00,
2013-01-25 14:58:00,38.3,19.7,29.25,West,270,7.6,11.9,47,0.00,,,0.00,WUHU21623XXSP,2013-01-25 20:58:00,
2013-01-25 15:03:00,38.5,19.9,29.25,WSW,247,7.6,7.8,47,0.00,,,0.00,WUHU21623XXSP,2013-01-25 21:03:00,
2013-01-25 15:08:00,38.5,19.9,29.25,West,270,8.7,8.7,47,0.00,,,0.00,WUHU21623XXSP,2013-01-25 21:08:00,
2013-01-25 15:13:00,38.5,19.9,29.25,NNE,22,6.0,8.7,47,0.00,,,0.00,WUHU21623XXSP,2013-01-25 21:13:00,
2013-01-25 15:17:00,38.5,19.9,29.25,WSW,247,5.8,9.4,47,0.00,,,0.00,WUHU21623XXSP,2013-01-25 21:17:00,
2013-01-25 15:22:00,38.1,19.6,29.24,NNW,337,8.9,14.1,47,0.00,,,0.00,WUHU21623XXSP,2013-01-25 21:22:00,
2013-01-25 15:28:00,37.9,19.4,29.25,West,270,7.8,14.1,47,0.00,,,0.00,WUHU21623XXSP,2013-01-25 21:28:00,
2013-01-25 15:33:00,37.9,19.4,29.25,WNW,292,7.2,7.8,47,0.00,,,0.00,WUHU21623XXSP,2013-01-25 21:33:00,
2013-01-25 15:38:00,37.9,19.4,29.25,WNW,292,1.3,14.3,47,0.00,,,0.00,WUHU21623XXSP,2013-01-25 21:38:00,
2013-01-25 15:43:00,37.8,19.8,29.25,WNW,292,6.9,14.3,48,0.00,,,0.00,WUHU21623XXSP,2013-01-25 21:43:00,
2013-01-25 15:48:00,37.9,19.9,29.25,West,270,5.4,8.7,48,0.00,,,0.00,WUHU21623XXSP,2013-01-25 21:48:00,
2013-01-25 15:53:00,37.6,19.6,29.25,WNW,292,12.1,12.1,48,0.00,,,0.00,WUHU21623XXSP,2013-01-25 21:53:00,
2013-01-25 15:58:00,37.6,19.6,29.25,WNW,292,5.6,12.1,48,0.00,,,0.00,WUHU21623XXSP,2013-01-25 21:58:00,
2013-01-25 16:03:00,37.4,19.4,29.26,WSW,247,6.3,6.3,48,0.00,,,0.00,WUHU21623XXSP,2013-01-25 22:03:00,
2013-01-25 16:08:00,37.0,19.1,29.26,NNW,337,5.1,13.9,48,0.00,,,0.00,WUHU21623XXSP,2013-01-25 22:08:00,
2013-01-25 16:12:00,36.9,19.5,29.26,West,270,5.6,13.9,49,0.00,,,0.00,WUHU21623XXSP,2013-01-25 22:12:00,
2013-01-25 16:17:00,36.5,19.1,29.27,NW,315,2.0,8.7,49,0.00,,,0.00,WUHU21623XXSP,2013-01-25 22:17:00,
2013-01-25 16:22:00,36.3,19.5,29.27,West,270,2.5,8.3,50,0.00,,,0.00,WUHU21623XXSP,2013-01-25 22:22:00,
2013-01-25 16:27:00,36.0,19.2,29.27,WNW,292,6.3,8.1,50,0.00,,,0.00,WUHU21623XXSP,2013-01-25 22:27:00,
2013-01-25 16:32:00,35.8,19.0,29.27,WNW,292,0.7,8.1,51,0.00,,,0.00,WUHU21623XXSP,2013-01-25 22:32:00,
2013-01-25 16:37:00,35.4,19.5,29.27,WNW,292,0.0,1.6,52,0.00,,,0.00,WUHU21623XXSP,2013-01-25 22:37:00,
2013-01-25 16:42:00,35.2,19.4,29.27,WNW,292,0.7,9.4,52,0.00,,,0.00,WUHU21623XXSP,2013-01-25 22:42:00,
2013-01-25 16:47:00,34.9,19.4,29.28,WNW,292,0.0,9.4,53,0.00,,,0.00,WUHU21623XXSP,2013-01-25 22:47:00,
2013-01-25 16:52:00,34.3,19.3,29.28,NNW,337,4.7,5.4,54,0.00,,,0.00,WUHU21623XXSP,2013-01-25 22:52:00,
2013-01-25 16:57:00,34.3,19.3,29.28,NW,315,5.8,5.8,54,0.00,,,0.00,WUHU21623XXSP,2013-01-25 22:57:00,
2013-01-25 17:02:00,33.8,19.2,29.28,West,270,4.5,5.8,55,0.00,,,0.00,WUHU21623XXSP,2013-01-25 23:02:00,
2013-01-25 17:07:00,33.4,19.3,29.28,NW,315,5.4,5.8,56,0.00,,,0.00,WUHU21623XXSP,2013-01-25 23:07:00,
2013-01-25 17:13:00,33.4,19.3,29.28,West,270,2.9,5.8,56,0.00,,,0.00,WUHU21623XXSP,2013-01-25 23:13:00,
2013-01-25 17:18:00,33.1,19.0,29.29,NW,315,1.1,2.9,56,0.00,,,0.00,WUHU21623XXSP,2013-01-25 23:18:00,
2013-01-25 17:22:00,32.7,19.1,29.29,West,270,2.9,2.9,57,0.00,,,0.00,WUHU21623XXSP,2013-01-25 23:22:00,
2013-01-25 17:27:00,32.5,18.9,29.29,NW,315,0.0,3.8,57,0.00,,,0.00,WUHU21623XXSP,2013-01-25 23:27:00,
2013-01-25 17:32:00,32.2,18.6,29.29,West,270,6.0,7.4,57,0.00,,,0.00,WUHU21623XXSP,2013-01-25 23:32:00,
2013-01-25 17:37:00,31.8,18.7,29.30,NNW,337,0.0,7.4,58,0.00,,,0.00,WUHU21623XXSP,2013-01-25 23:37:00,
2013-01-25 17:42:00,31.8,18.7,29.29,WNW,292,4.9,5.6,58,0.00,,,0.00,WUHU21623XXSP,2013-01-25 23:42:00,
2013-01-25 17:47:00,31.6,18.5,29.30,WNW,292,3.8,7.6,58,0.00,,,0.00,WUHU21623XXSP,2013-01-25 23:47:00,
2013-01-25 17:52:00,31.5,18.8,29.30,West,270,2.7,7.6,59,0.00,,,0.00,WUHU21623XXSP,2013-01-25 23:52:00,
2013-01-25 17:57:00,31.3,18.6,29.30,West,270,4.7,6.7,59,0.00,,,0.00,WUHU21623XXSP,2013-01-25 23:57:00,
2013-01-25 18:02:00,30.9,18.2,29.30,West,270,2.9,4.7,59,0.00,,,0.00,WUHU21623XXSP,2013-01-26 00:02:00,
2013-01-25 18:07:00,30.7,18.1,29.30,West,270,1.6,2.9,59,0.00,,,0.00,WUHU21623XXSP,2013-01-26 00:07:00,
2013-01-25 18:12:00,30.7,18.5,29.31,West,270,2.2,4.0,60,0.00,,,0.00,WUHU21623XXSP,2013-01-26 00:12:00,
2013-01-25 18:17:00,30.6,18.3,29.31,West,270,1.6,4.0,60,0.00,,,0.00,WUHU21623XXSP,2013-01-26 00:17:00,
2013-01-25 18:22:00,30.2,18.1,29.31,WNW,292,0.4,2.2,60,0.00,,,0.00,WUHU21623XXSP,2013-01-26 00:22:00,
2013-01-25 18:27:00,30.0,17.8,29.31,WNW,292,0.0,6.0,60,0.00,,,0.00,WUHU21623XXSP,2013-01-26 00:27:00,
2013-01-25 18:32:00,30.0,17.8,29.32,WNW,292,0.4,6.0,60,0.00,,,0.00,WUHU21623XXSP,2013-01-26 00:32:00,
2013-01-25 18:37:00,29.8,18.0,29.32,WNW,292,1.6,2.5,61,0.00,,,0.00,WUHU21623XXSP,2013-01-26 00:37:00,
2013-01-25 18:42:00,29.7,17.8,29.32,WNW,292,4.3,4.3,61,0.00,,,0.00,WUHU21623XXSP,2013-01-26 00:42:00,
2013-01-25 18:47:00,29.5,18.0,29.32,West,270,2.2,4.9,62,0.00,,,0.00,WUHU21623XXSP,2013-01-26 00:47:00,
2013-01-25 18:52:00,29.3,17.9,29.32,WNW,292,0.0,4.9,62,0.00,,,0.00,WUHU21623XXSP,2013-01-26 00:52:00,
2013-01-25 18:57:00,29.1,17.9,29.32,West,270,0.0,2.2,62,0.00,,,0.00,WUHU21623XXSP,2013-01-26 00:57:00,
2013-01-25 19:02:00,29.1,17.7,29.32,WNW,292,0.0,0.0,62,0.00,,,0.00,WUHU21623XXSP,2013-01-26 01:02:00,
2013-01-25 19:07:00,28.9,17.5,29.33,WNW,292,0.0,0.0,62,0.00,,,0.00,WUHU21623XXSP,2013-01-26 01:07:00,
2013-01-25 19:12:00,28.8,17.4,29.33,WNW,292,0.0,0.0,62,0.00,,,0.00,WUHU21623XXSP,2013-01-26 01:12:00,
2013-01-25 19:17:00,28.8,17.4,29.33,WNW,292,0.0,0.0,62,0.00,,,0.00,WUHU21623XXSP,2013-01-26 01:17:00,
2013-01-25 19:22:00,28.6,17.2,29.33,NNE,22,0.0,0.0,62,0.00,,,0.00,WUHU21623XXSP,2013-01-26 01:22:00,
2013-01-25 19:27:00,28.4,17.1,29.33,North,0,0.7,0.7,62,0.00,,,0.00,WUHU21623XXSP,2013-01-26 01:27:00,
2013-01-25 19:32:00,28.2,17.2,29.33,North,0,1.1,1.1,63,0.00,,,0.00,WUHU21623XXSP,2013-01-26 01:32:00,
2013-01-25 19:37:00,28.2,17.6,29.34,NNW,337,2.2,3.4,64,0.00,,,0.00,WUHU21623XXSP,2013-01-26 01:37:00,
2013-01-25 19:42:00,28.2,17.6,29.34,NNE,22,2.5,4.9,64,0.00,,,0.00,WUHU21623XXSP,2013-01-26 01:42:00,
2013-01-25 19:47:00,28.2,18.0,29.34,North,0,0.0,4.9,65,0.00,,,0.00,WUHU21623XXSP,2013-01-26 01:47:00,
2013-01-25 19:52:00,28.4,17.8,29.34,NNE,22,6.3,6.3,64,0.00,,,0.00,WUHU21623XXSP,2013-01-26 01:52:00,
2013-01-25 19:57:00,28.2,17.9,29.34,NNW,337,8.7,8.7,64,0.00,,,0.00,WUHU21623XXSP,2013-01-26 01:57:00,
2013-01-25 20:02:00,28.2,16.9,29.35,North,0,4.0,8.7,62,0.00,,,0.00,WUHU21623XXSP,2013-01-26 02:02:00,
2013-01-25 20:07:00,27.3,15.6,29.35,NE,45,3.4,8.7,61,0.00,,,0.00,WUHU21623XXSP,2013-01-26 02:07:00,
2013-01-25 20:12:00,27.0,14.5,29.36,North,0,6.3,8.3,59,0.00,,,0.00,WUHU21623XXSP,2013-01-26 02:12:00,
2013-01-25 20:17:00,26.4,13.1,29.36,East,90,0.7,11.0,57,0.00,,,0.00,WUHU21623XXSP,2013-01-26 02:17:00,
2013-01-25 20:22:00,25.9,12.6,29.36,NNW,337,3.1,11.0,57,0.00,,,0.00,WUHU21623XXSP,2013-01-26 02:22:00,
2013-01-25 20:27:00,25.5,12.3,29.36,North,0,2.0,7.8,57,0.00,,,0.00,WUHU21623XXSP,2013-01-26 02:27:00,
2013-01-25 20:32:00,25.2,11.8,29.37,NW,315,5.4,7.8,56,0.00,,,0.00,WUHU21623XXSP,2013-01-26 02:32:00,
2013-01-25 20:37:00,24.6,11.1,29.37,North,0,4.5,7.4,56,0.00,,,0.00,WUHU21623XXSP,2013-01-26 02:37:00,
2013-01-25 20:42:00,24.4,10.9,29.37,NNW,337,3.1,7.4,56,0.00,,,0.00,WUHU21623XXSP,2013-01-26 02:42:00,
2013-01-25 20:47:00,24.1,10.2,29.38,NE,45,6.9,6.9,55,0.00,,,0.00,WUHU21623XXSP,2013-01-26 02:47:00,
2013-01-25 20:52:00,23.9,10.0,29.38,NNW,337,4.7,6.9,55,0.00,,,0.00,WUHU21623XXSP,2013-01-26 02:52:00,
2013-01-25 20:57:00,23.5,9.6,29.38,North,0,8.3,8.3,55,0.00,,,0.00,WUHU21623XXSP,2013-01-26 02:57:00,
2013-01-25 21:02:00,23.5,9.6,29.38,NNW,337,4.9,8.3,55,0.00,,,0.00,WUHU21623XXSP,2013-01-26 03:02:00,
2013-01-25 21:07:00,23.0,8.9,29.39,NNE,22,3.1,6.7,54,0.00,,,0.00,WUHU21623XXSP,2013-01-26 03:07:00,
2013-01-25 21:12:00,22.8,8.2,29.39,NNW,337,7.8,7.8,53,0.00,,,0.00,WUHU21623XXSP,2013-01-26 03:12:00,
2013-01-25 21:17:00,22.6,8.2,29.39,North,0,1.8,7.8,53,0.00,,,0.00,WUHU21623XXSP,2013-01-26 03:17:00,
2013-01-25 21:22:00,22.5,8.0,29.40,NW,315,5.4,5.4,53,0.00,,,0.00,WUHU21623XXSP,2013-01-26 03:22:00,
2013-01-25 21:27:00,22.3,7.6,29.40,NNE,22,2.0,5.4,53,0.00,,,0.00,WUHU21623XXSP,2013-01-26 03:27:00,
2013-01-25 21:32:00,22.1,7.9,29.41,NE,45,0.0,3.6,54,0.00,,,0.00,WUHU21623XXSP,2013-01-26 03:32:00,
2013-01-25 21:37:00,21.9,7.7,29.41,NNW,337,0.0,2.7,54,0.00,,,0.00,WUHU21623XXSP,2013-01-26 03:37:00,
2013-01-25 21:42:00,21.7,7.1,29.42,NNE,22,2.2,2.7,53,0.00,,,0.00,WUHU21623XXSP,2013-01-26 03:42:00,
2013-01-25 21:47:00,21.6,6.9,29.42,NE,45,5.1,5.1,53,0.00,,,0.00,WUHU21623XXSP,2013-01-26 03:47:00,
2013-01-25 21:52:00,21.4,7.2,29.43,North,0,1.3,5.1,54,0.00,,,0.00,WUHU21623XXSP,2013-01-26 03:52:00,
2013-01-25 21:57:00,21.4,7.2,29.43,North,0,1.3,5.1,54,0.00,,,0.00,WUHU21623XXSP,2013-01-26 03:57:00,
2013-01-25 22:02:00,21.0,6.8,29.44,NE,45,4.9,4.9,54,0.00,,,0.00,WUHU21623XXSP,2013-01-26 04:02:00,
2013-01-25 22:07:00,20.8,6.7,29.44,NNE,22,0.0,4.9,54,0.00,,,0.00,WUHU21623XXSP,2013-01-26 04:07:00,
2013-01-25 22:12:00,20.5,6.3,29.43,NNE,22,0.0,3.8,54,0.00,,,0.00,WUHU21623XXSP,2013-01-26 04:12:00,
2013-01-25 22:17:00,20.3,6.2,29.44,North,0,6.0,6.0,54,0.00,,,0.00,WUHU21623XXSP,2013-01-26 04:17:00,
2013-01-25 22:22:00,19.9,5.8,29.44,North,0,4.5,6.0,54,0.00,,,0.00,WUHU21623XXSP,2013-01-26 04:22:00,
2013-01-25 22:27:00,19.8,5.6,29.44,NE,45,3.1,4.5,54,0.00,,,0.00,WUHU21623XXSP,2013-01-26 04:27:00,
2013-01-25 22:32:00,19.6,5.5,29.44,NE,45,1.1,3.1,54,0.00,,,0.00,WUHU21623XXSP,2013-01-26 04:32:00,
2013-01-25 22:37:00,19.4,5.3,29.44,NE,45,2.5,5.4,54,0.00,,,0.00,WUHU21623XXSP,2013-01-26 04:37:00,
2013-01-25 22:42:00,19.2,5.2,29.45,North,0,2.9,5.4,54,0.00,,,0.00,WUHU21623XXSP,2013-01-26 04:42:00,
2013-01-25 22:47:00,19.2,5.6,29.45,North,0,3.4,3.4,55,0.00,,,0.00,WUHU21623XXSP,2013-01-26 04:47:00,
2013-01-25 22:52:00,19.0,5.4,29.45,NNW,337,2.2,4.9,55,0.00,,,0.00,WUHU21623XXSP,2013-01-26 04:52:00,
2013-01-25 22:57:00,18.9,5.2,29.46,NW,315,1.6,4.9,55,0.00,,,0.00,WUHU21623XXSP,2013-01-26 04:57:00,
2013-01-25 23:00:00,18.7,5.1,29.46,NNE,22,2.0,4.9,55,0.00,,,0.00,WUHU21623XXSP,2013-01-26 05:00:00,
2013-01-25 23:01:00,18.7,5.1,29.46,NNW,337,2.9,4.3,55,0.00,,,0.00,WUHU21623XXSP,2013-01-26 05:01:00,
2013-01-25 23:03:00,18.7,5.1,29.46,WNW,292,4.9,4.9,55,0.00,,,0.00,WUHU21623XXSP,2013-01-26 05:03:00,
2013-01-25 23:08:00,18.5,4.9,29.46,NNW,337,5.8,5.8,55,0.00,,,0.00,WUHU21623XXSP,2013-01-26 05:08:00,
2013-01-25 23:13:00,18.3,4.7,29.47,NE,45,4.0,5.8,55,0.00,,,0.00,WUHU21623XXSP,2013-01-26 05:13:00,
2013-01-25 23:18:00,18.3,5.1,29.48,NW,315,2.0,4.0,56,0.00,,,0.00,WUHU21623XXSP,2013-01-26 05:18:00,
2013-01-25 23:23:00,18.3,5.1,29.48,NNE,22,2.0,4.7,56,0.00,,,0.00,WUHU21623XXSP,2013-01-26 05:23:00,
2013-01-25 23:27:00,18.1,5.0,29.48,NE,45,0.0,4.7,56,0.00,,,0.00,WUHU21623XXSP,2013-01-26 05:27:00,
2013-01-25 23:57:00,17.2,5.0,29.47,North,0,2.0,2.0,58,0.00,,,0.00,WUHU21623XXSP,2013-01-26 05:57:00,